Last server records
Pro Nub

Map info

kz_templejourney
kz_templejourney ( Xtreme-Jumps) 21.06.2008
Xtreme-Jumps record topoviygus - 03:43.06

KZ-Rush record No record

Mapper  rad0n

Pro-record snegg - 06:12.79

Nub-record fykseN - 04:11.67 (74 cp / 6 gc)

Difficulty Average

Length Middle

Download map kz_templejourney (4,68 MB)
Installation instructions

Map Installation Guide

  1. Download map archive kz_templejourney.zip
  2. Unzip the archive in any convenient folder
  3. Open cstrike folder, which is located in the place of Counter-Strike installation. In case of Steam version the path looks like Steam\steamapps\common\Half-Life
  4. Copy all files from the folder, where you unzipped the archive, to cstrike folder according to the following table (if your system asks about replacing files, choose Copy and Replace):
gfx/env/desert01bk.tga>>gfx/env/desert01bk.tga
gfx/env/desert01dn.tga>>gfx/env/desert01dn.tga
gfx/env/desert01ft.tga>>gfx/env/desert01ft.tga
gfx/env/desert01lf.tga>>gfx/env/desert01lf.tga
gfx/env/desert01rt.tga>>gfx/env/desert01rt.tga
gfx/env/desert01up.tga>>gfx/env/desert01up.tga
maps/kz_templejourney.bsp>>maps/kz_templejourney.bsp
maps/kz_templejourney.res>>maps/kz_templejourney.res
models/palm2.mdl>>models/palm2.mdl

Community records

# Player Time Difference Date  
No records on this map
# Player AA Time Date Weapon
1 snegg 10aa 06:12.79 26.11.20
2 erdik 10aa 06:26.37 20.01.18
3 SlasHeR 10aa 07:17.46 28.02.19
4 bORN2MAKEPORN 10aa 07:25.68 28.02.19
5 Kalashnikov 10aa 07:27.09 05.02.18
6 oRR 10aa 08:08.72 09.03.18
7 Andro 10aa 08:42.01 28.02.19
8 elvis 10aa 08:42.48 01.04.23
9 Niclas0711 10aa 09:03.34 15.01.22
10 Hong10 10aa 09:07.39 21.09.21
11 GoEasy 10aa 09:18.90 20.02.25
12 shizzLe_all_day! 10aa 10:03.48 10.05.26
13 ploydi 10aa 10:32.31 17.06.24
14 effuh 10aa 10:37.31 26.03.20
15 rapier 10aa 10:49.67 02.06.21
16 Klusia 10aa 11:00.54 30.11.20
17 rck 10aa 11:03.84 12.07.17
18 gogi 10aa 11:20.92 22.08.22
19 inj3ct0r. 10aa 11:37.22 28.02.19
20 Shinzo 10aa 12:32.29 10.02.21
21 dead 100aa 12:52.81 14.11.24
22 back2basics 10aa 12:55.02 06.03.22
23 JustDoItT 10aa 13:10.64 26.09.23
24 jigsaw 10aa 13:32.91 28.02.19
25 bluntsfromthecrypt 10aa 13:36.75 26.11.20
26 shu 10aa 14:50.71 17.06.24
27 luw4uk 10aa 15:15.78 03.04.26
28 Yoyo ^_^ 10aa 27:10.71 13.05.17
29 atopsgaming 10aa 37:58.38 30.11.20
# Player AA Time Date Weapon CP GC
1 fykseN 10aa 04:11.67 01.05.19 74 6
2 GoDfreee 10aa 04:45.84 09.03.18 86 6
3 SlasHeR 10aa 05:28.86 28.02.19 113 13
4 Bolvan 10aa 05:29.19 10.05.26 155 10
5 WhereIsMyPanda 10aa 05:29.39 03.10.18 122 14
6 erdik 10aa 05:39.95 20.01.18 139 8
7 Toff1fee 10aa 05:42.28 20.01.18 97 22
8 lampa666 10aa 06:10.49 14.11.21 182 27
9 Mara_Salvatrucha 10aa 06:15.72 03.10.18 117 23
10 Stanley 10aa 06:24.51 28.02.19 199 21
11 snegg 10aa 06:26.40 01.05.19 140 18
12 Madcat 10aa 06:26.84 01.04.23 138 26
13 voX 10aa 06:35.67 28.02.19 146 31
14 Kangaroo_kzna 10aa 06:37.33 10.05.26 146 18
15 Lilies 10aa 06:39.05 21.02.25 196 30
16 rck 10aa 06:39.72 12.07.17 170 13
17 米扣啥人品 10aa 06:40.68 05.05.18 94 20
18 taipan 10aa 06:45.75 01.01.18 135 22
19 etern1ty 10aa 06:51.62 01.04.23 143 12
20 cum_shot_in_your_face 10aa 06:55.18 14.05.17 155 25
21 zepp_ 10aa 07:00.11 13.05.17 199 17
22 toyzz 10aa 07:05.64 13.05.17 179 31
23 4_8_15_16_23_42 10aa 07:06.10 26.11.21 180 17
24 rikkitikkitavi 10aa 07:13.03 17.10.22 140 47
25 GoEasy 10aa 07:14.43 20.02.25 200 22
26 wooo 10aa 07:16.06 01.05.19 165 27
27 PlayFoRmE 10aa 07:17.07 01.05.19 187 22
28 I_Want_My_Tears_Back 10aa 07:25.86 01.04.23 123 36
29 dous 100aa 07:27.79 02.07.23 131 35
30 monowii 10aa 07:31.17 10.05.26 170 46
31 inactive 10aa 07:37.77 01.04.23 204 48
32 Bean 100aa 07:37.98 29.04.25 120 52
33 L&M 10aa 07:40.18 09.11.22 174 34
34 0. 10aa 07:40.96 01.04.23 174 19
35 LSHHHiohhho 10aa 07:48.66 05.06.19 212 41
36 ENKAS 10aa 07:50.66 30.11.20 185 45
37 fckn_A. 100aa 07:50.79 08.03.23 147 36
38 Bombiribom 10aa 07:52.78 05.05.18 181 36
39 JesusChristIsGod 10aa 07:57.21 17.06.24 263 40
40 gogi 10aa 08:05.30 15.01.22 157 31
41 Shanta 10aa 08:05.41 28.12.19 168 41
42 Bomj_Kolyadun 100aa 08:07.08 02.07.23 165 43
43 sook 10aa 08:08.47 12.07.17 167 44
44 bikk 10aa 08:12.53 21.04.19 150 59
45 hymm4sssS 10aa 08:12.98 09.11.22 174 27
46 jb 10aa 08:13.44 20.11.21 127 48
47 zza 10aa 08:15.90 07.09.22 99 98
48 equinzy 10aa 08:16.37 09.11.22 197 45
49 nep4uk 10aa 08:16.44 21.04.19 221 36
50 dAREALZYX 10aa 08:16.74 30.11.20 155 34
51 WERANCE 10aa 08:17.97 05.05.18 185 50
52 `Ventus._ム 10aa 08:25.99 10.05.26 168 64
53 maiLyy 10aa 08:28.48 10.05.26 184 46
54 nickname 10aa 08:29.39 30.11.22 144 37
55 123 10aa 08:32.83 22.09.18 165 50
56 Flummi 100aa 08:33.07 31.12.23 98 30
57 BlizZz 10aa 08:35.60 26.03.20 151 51
58 Duck 10aa 08:38.01 11.10.21 162 38
59 111 10aa 08:39.22 30.03.26 116 75
60 LLazar 10aa 08:39.68 30.11.20 171 76
61 Bomj_Kolyadun 10aa 08:43.61 17.04.20 188 30
62 Invisible 10aa 08:44.33 06.03.22 165 49
63 dropzone 10aa 08:46.38 01.06.24 136 75
64 HEBPEDUMKA!` 10aa 08:46.83 03.10.18 188 40
65 drifty. 10aa 08:47.53 10.05.26 146 37
66 ROFL 10aa 08:49.11 05.01.18 148 49
67 ccw 100aa 08:49.51 30.03.26 190 47
68 Nikitich 10aa 08:52.06 10.03.17 162 41
69 TRENTCANTRELLE 10aa 08:53.32 04.10.17 181 49
70 Jared 10aa 08:54.87 24.04.17 201 61
71 MiXiEEE 10aa 08:55.84 18.01.18 178 35
72 пупсик 10aa 08:57.16 03.10.18 254 65
73 inso 10aa 08:57.26 20.01.18 227 59
74 pwned 10aa 08:57.34 01.05.19 138 44
75 Fara1 10aa 08:58.28 22.09.18 213 45
76 Zak 10aa 08:58.57 27.12.19 243 48
77 bezah 10aa 08:59.14 16.08.23 199 47
78 moonsh159rus 10aa 08:59.28 20.01.18 157 63
79 MustiK 10aa 09:00.75 06.03.22 150 46
80 Funkky 10aa 09:03.05 16.03.20 185 50
81 imma 10aa 09:03.73 20.01.18 163 62
82 Deadpool 10aa 09:03.92 12.07.17 185 35
83 Penguin 10aa 09:04.41 22.09.18 152 11
84 Dmitrich! 10aa 09:04.60 10.03.17 187 40
85 PristoriuS 10aa 09:05.61 01.11.22 185 52
86 pttttt 10aa 09:05.98 01.05.19 151 69
87 None 10aa 09:07.48 12.07.17 154 45
88 Player 10aa 09:07.93 26.11.20 264 30
89 KaHapeuKa.brn 10aa 09:08.46 31.05.19 166 61
90 cCC 10aa 09:09.18 03.10.18 137 42
91 Igor_S. 10aa 09:09.35 08.05.16 220 52
92 na1kon 10aa 09:11.78 20.01.18 189 37
93 spamer_j 10aa 09:17.04 30.11.20 216 33
94 leet. 100aa 09:20.36 20.02.25 181 58
95 Eimi_Fukada 10aa 09:24.05 14.11.21 170 53
96 AKB 10aa 09:24.80 26.11.20 220 53
97 Master_Me4a 10aa 09:25.39 21.04.19 232 26
98 akkuratist 10aa 09:26.48 30.11.20 131 89
99 Sidewalk_Enforcer 10aa 09:28.61 22.09.18 176 66
100 Jastixlt 10aa 09:29.08 01.04.23 172 56
101 nema povlacenja 10aa 09:31.28 13.05.17 194 63
102 Severus 10aa 09:32.73 12.06.20 163 62
103 Harley 10aa 09:33.53 04.01.24 217 75
104 dark69 10aa 09:33.97 03.11.21 188 82
105 kamikaze 10aa 09:41.24 03.10.18 121 36
106 mindset1337 100aa 09:51.13 29.05.25 162 77
107 NucLeaR 10aa 09:51.94 22.09.18 235 88
108 sludge_factory 10aa 09:52.13 10.05.26 258 44
109 estrom 10aa 10:00.29 21.04.19 228 36
110 Severus 10aa 10:00.56 03.10.18 184 55
111 ghorK 100aa 10:00.93 30.03.26 201 76
112 Ultras_x30n1 10aa 10:01.88 03.04.26 222 56
113 The_Birthday_Massacre 10aa 10:02.63 04.10.17 177 79
114 squirt 10aa 10:03.19 24.04.17 178 51
115 ChildFromHell 10aa 10:04.37 14.05.17 139 68
116 nindzhia 10aa 10:05.03 17.06.24 185 55
117 daily 10aa 10:05.81 04.01.24 168 99
118 chelodoi 10aa 10:07.32 12.08.22 176 86
119 badzerrr_kz-aura 10aa 10:09.80 28.12.19 157 100
120 diiit 10aa 10:09.93 10.05.26 189 65
121 tolyatti 10aa 10:13.45 20.01.18 163 95
122 recluse 10aa 10:13.66 30.03.26 232 68
123 damage 10aa 10:16.01 22.08.22 153 55
124 kassu 10aa 10:18.25 13.05.17 177 31
125 P 10aa 10:18.66 01.05.19 169 88
126 Gonaelannon 10aa 10:18.73 28.02.19 209 64
127 shadow 10aa 10:21.21 08.03.23 231 88
128 hoolz 100aa 10:22.97 15.07.23 143 57
129 Xednay 10aa 10:25.78 14.11.21 158 69
130 all1aNcE 10aa 10:27.80 01.01.18 204 89
131 r33d 10aa 10:28.47 15.01.22 198 56
132 juMp3r 10aa 10:32.35 08.03.23 202 82
133 Cocaine 10aa 10:34.37 09.03.18 223 54
134 Jopka 100aa 10:34.80 10.05.26 205 72
135 CTouK 10aa 10:41.06 08.07.22 171 55
136 c0rn 10aa 10:43.93 03.04.26 277 91
137 frej1337 10aa 10:48.34 01.05.19 151 49
138 .h4m 10aa 10:48.89 26.11.20 208 66
139 Usatii 100aa 10:49.56 16.06.25 213 101
140 BoRnSicK 100aa 10:49.99 12.03.26 344 87
141 Vasudeva 10aa 10:54.20 26.03.20 216 97
142 Voodoo 10aa 10:55.90 07.09.22 190 64
143 VelikoeMnojestvo 10aa 10:57.57 17.06.24 223 74
144 Player 10aa 10:58.42 08.07.22 178 55
145 maks 10aa 11:01.30 09.03.18 241 51
146 thisObedience 10aa 11:03.57 20.11.21 200 52
147 CyberTourist 10aa 11:05.68 28.12.19 178 72
148 Xe[0]n 10aa 11:09.38 22.09.18 179 112
149 ACID_THUNDER 10aa 11:11.40 30.11.20 144 83
150 Альтуха_с_3_разме 10aa 11:18.26 30.03.26 257 75
151 Honey 10aa 11:21.48 20.01.18 141 102
152 atopsgaming 10aa 11:23.05 26.11.20 218 96
153 Riots 10aa 11:24.11 03.10.18 202 69
154 Jas 10aa 11:27.22 01.04.23 195 68
155 Крокодил_Тяптяп 10aa 11:27.58 03.04.26 219 95
156 i_wanna_die 10aa 11:27.84 12.06.20 254 67
157 z5N 10aa 11:30.15 09.06.17 245 83
158 say 10aa 11:32.17 14.05.17 234 66
159 crouzl 10aa 11:35.80 02.06.21 131 72
160 Kefren 10aa 11:35.94 09.11.22 226 93
161 dojiiii 100aa 11:36.59 07.09.22 182 78
162 Ricci_010 10aa 11:40.09 09.06.17 152 55
163 TEEHEE 10aa 11:43.66 08.03.23 186 103
164 asdasdasd 10aa 11:44.57 10.05.26 187 70
165 ananas 10aa 11:46.30 09.03.18 187 80
166 Al9 10aa 11:46.91 01.05.19 298 83
167 Euro 10aa 11:47.52 08.03.23 189 83
168 Ringmaster 100aa 11:48.52 05.12.23 134 42
169 Контрвзбздун 10aa 11:50.05 01.05.19 249 89
170 Clover 10aa 11:52.04 24.04.17 120 70
171 Vol4ica 10aa 11:52.71 14.05.17 184 46
172 EcLiPSe 10aa 11:53.08 19.06.18 206 91
173 sakvoyaj 10aa 11:54.50 30.03.26 185 120
174 Arthe 10aa 11:55.76 20.01.18 53 51
175 LosAngeles^ 10aa 11:56.51 29.11.19 272 62
176 Hyperactiv 10aa 11:56.84 01.04.23 143 120
177 NucLeaR 10aa 12:00.16 25.04.18 281 74
178 slow 10aa 12:06.66 30.11.20 232 85
179 pano 10aa 12:09.83 01.04.23 230 90
180 KAMblP<kzmod> [JR] 10aa 12:16.48 01.01.18 229 106
181 GoodBeetle 10aa 12:16.59 01.01.18 156 124
182 inj3ct0r. 10aa 12:17.75 01.01.18 217 127
183 Flomaster 10aa 12:18.89 26.03.20 215 70
184 Player 10aa 12:19.11 26.03.20 244 82
185 ptnpnhasd 100aa 12:26.58 09.05.26 161 69
186 LiFxC 10aa 12:28.00 05.06.19 171 67
187 Kaori 10aa 12:31.50 12.08.22 175 67
188 P4L 10aa 12:35.34 17.06.24 208 96
189 Nooblee 10aa 12:41.03 26.03.20 168 90
190 IIo3uTuB4uK 10aa 12:44.00 11.10.21 246 66
191 ɴᴇᴠᴇʀ_ᴛᴏxɪᴄ 10aa 12:47.01 30.03.26 151 73
192 W_E_B_S 10aa 12:47.62 26.03.20 166 77
193 covfefe 10aa 12:47.98 09.03.18 271 74
194 vOci.Why 10aa 12:54.60 08.11.25 200 110
195 Silk_Road 10aa 12:55.28 30.11.22 143 91
196 SylviaFallfor 10aa 12:56.29 26.09.23 225 147
197 Player 10aa 12:59.74 01.05.19 217 117
198 t3d 10aa 13:03.81 30.11.22 73 68
199 Ninja 10aa 13:08.85 16.08.23 162 71
200 rand 10aa 13:10.49 31.05.19 245 56
201 stopban 10aa 13:19.41 26.11.20 212 128
202 Madorchik 10aa 13:20.97 21.02.25 398 103
203 SS_Derrick 10aa 13:23.75 12.03.26 279 103
204 cs-headshoot___Player 10aa 13:29.64 10.03.17 208 78
205 Streptococ 10aa 13:33.97 08.03.23 198 132
206 MazaRupuce 10aa 13:35.88 18.01.18 199 70
207 unskillable 10aa 13:38.52 16.08.23 216 98
208 Insane 10aa 13:41.39 10.05.26 262 134
209 therealuser 10aa 13:43.41 13.05.17 250 100
210 maronny 10aa 13:46.36 05.06.19 206 101
211 V4R10L4V3R4 10aa 13:46.52 03.10.18 223 167
212 dimaRIC 10aa 13:47.97 25.04.18 224 64
213 tekk 10aa 13:55.38 06.03.22 137 93
214 Bunny^ 10aa 13:59.72 20.01.18 214 145
215 DanDaDanDanDaDan 10aa 14:00.02 30.11.20 184 111
216 Mou_rocnoguH 10aa 14:00.02 22.09.18 154 71
217 ilya228136 10aa 14:08.34 11.10.21 72 81
218 IsterikA 10aa 14:12.71 17.10.22 203 96
219 Василич 10aa 14:27.11 09.03.18 159 69
220 Kang 10aa 14:29.04 10.05.26 208 119
221 ONe 10aa 14:30.36 04.10.17 123 120
222 Supersonic 10aa 14:32.74 04.01.24 218 126
223 demolution_man 10aa 14:34.39 25.03.18 241 115
224 EnoT 10aa 14:35.37 11.10.21 111 97
225 16.Nobody 10aa 14:36.48 15.01.22 241 84
226 Danza 10aa 14:37.71 01.04.23 108 57
227 Player 10aa 14:38.40 26.03.20 217 112
228 Schtoltz 10aa 14:40.93 01.01.18 118 84
229 Tempest 10aa 14:40.99 12.07.17 189 118
230 cs 10aa 14:45.58 12.09.23 188 81
231 frostmourne_craves_blood 10aa 14:46.67 05.06.19 262 90
232 LaGGeR.! 10aa 14:47.41 26.09.23 192 99
233 mistik 10aa 14:51.30 05.02.18 234 166
234 EVilGENIUS 10aa 14:54.27 03.10.18 177 89
235 90000 10aa 15:08.41 08.07.22 198 80
236 AntTocher 10aa 15:09.80 30.03.26 231 178
237 reyd0n 10aa 15:12.56 14.05.17 194 92
238 Mist 10aa 15:13.72 09.03.18 206 127
239 Agressor1st 10aa 15:21.14 01.04.23 130 76
240 W1nS 10aa 15:29.16 18.05.18 242 147
241 mateo 10aa 15:30.46 30.03.26 114 130
242 macker 10aa 15:32.45 06.03.22 253 92
243 KOROJlb^^ 10aa 15:39.21 05.02.18 272 128
244 mobbyn 100aa 15:40.14 17.06.24 255 123
245 Kpoluk 10aa 15:41.17 08.05.16 106 165
246 LaGGeR.! 10aa 15:53.63 08.01.23 196 146
247 carl 10aa 16:01.05 30.03.26 195 142
248 rbN 10aa 16:07.61 05.06.19 164 134
249 payk 100aa 16:18.05 10.05.26 217 170
250 -ggbb. 10aa 16:40.35 22.09.18 159 94
251 d00m_______________ 10aa 17:08.72 08.11.25 181 151
252 mLNg 10aa 17:20.96 12.07.17 213 133
253 Juby 10aa 17:25.31 07.09.22 127 203
254 Malisska227 10aa 17:26.68 03.11.21 177 158
255 XEKA! 10aa 17:45.74 11.10.21 167 129
256 alsofter 10aa 17:49.23 22.07.18 171 148
257 cstrike 10aa 17:54.07 28.02.19 230 139
258 =_= 10aa 18:04.31 03.10.18 180 94
259 Req 10aa 18:13.59 04.01.24 259 134
260 kolesya 10aa 18:17.04 01.05.19 203 75
261 AUFGEN 100aa 18:24.27 02.07.23 228 176
262 [Sudnation]Player 10aa 18:43.19 26.09.23 208 144
263 NP_Bosna 100aa 18:51.91 25.02.23 200 146
264 just_Player 10aa 18:53.79 24.04.17 245 133
265 IDs^^ 10aa 18:55.51 10.05.26 182 197
266 SaVy777 10aa 19:08.53 30.11.22 276 224
267 E1EMENTCORE 10aa 20:20.70 05.06.19 260 160
268 BoDiK_Новоросс 10aa 20:44.71 24.04.17 431 372
269 ジレン 10aa 20:49.95 06.03.22 242 150
270 innominate 10aa 21:00.63 12.03.26 105 55
271 VII 100aa 21:08.92 31.12.23 44 67
272 HE7PyXa_VNM 10aa 21:54.39 07.06.17 224 140
273 lambda 10aa 21:59.09 28.02.19 282 280
274 Cash_&_Cash 10aa 22:00.11 11.10.21 211 109
275 akl 10aa 22:19.36 19.08.20 71 95
276 10047.1jeg 10aa 23:02.06 05.02.18 177 157
277 empty 10aa 23:28.86 06.03.22 254 170
278 MilsdarGats 10aa 24:08.66 24.04.17 260 179
279 Yunik 10aa 25:19.66 26.11.21 192 272
280 FESS_DNO_DNA_-_NE_VIDNO_VODU 10aa 25:23.05 05.05.18 133 291
281 sly_clum 10aa 26:23.47 30.11.20 171 213
282 fcnRat 100aa 26:28.90 07.09.22 135 206
283 ReZ1dEnT 10aa 26:29.86 03.04.26 289 280
284 Murderes46 10aa 27:51.71 28.02.19 222 308
285 incorrect_nick 10aa 30:28.87 21.04.19 166 278
286 $HouKran 10aa 31:13.48 21.02.25 254 289
287 SS_Derrick 100aa 32:12.48 07.09.22 354 253
288 KACTET 10aa 33:28.77 10.05.26 242 132
# Player AA Time Date Weapon CP GC
1 Streptococ 10aa 11:49.30 08.03.23 195 92
# Player AA Time Date Weapon CP GC
1 Aplatanado 10aa 15:20.41 30.11.20 189 134
2 reatzh 10aa 16:57.23 17.04.20 155 141

Other maps with same difficulty

Other maps from Xtreme-Jumps

Other maps from mapper rad0n